Location: Bernay
(48.6766°N, 2.9386°E)
Time: 15:24:53
(UTC+00:00)

Cosmos 1339 Rocket - Pass Details

Date: 12 January 2026
Orbit: 940 x 1006 km, 82.9° (Epoch: 9 February)

Event Time Altitude Azimuth Distance (km) Brightness Sun altitude
Rises 19:16:05 0° 190° (S) 3,664 7.6 -29.0°
Reaches altitude 10° 19:18:36 10° 191° (S) 2,711 6.9 -29.4°
Maximum altitude 19:24:49 82° 279° (W) 977 4.4 -30.4°
Enters shadow 19:25:11 78° 328° (NNW) 987 4.4 -30.5°
